Tracking 18843 objects as of 20-November-2017
HD Live streaming from Space Station
objects crossing your sky now

FENGYUN 1C DEB

Track FENGYUN 1C DEB now!
10-day predictions


NORAD ID: 30611
Int'l Code: 1999-025AMS
Perigee: 426.0 km
Apogee: 681.2 km
Inclination: 98.6 °
Period: 95.6 minutes
Semi major axis: 6924 km
RCS: 0.0108 m2 (small)
Launch date: May 10, 1999
Source: People's Republic of China (PRC)
Launch site: Taiyaun Space Center, China (TSC)

Note: This is SATELLITE DEBRIS
aabbcc
Your satellite tracking list
Your tracking list is empty




NASA's NSSDC Master Catalog

Two Line Element Set (TLE):
1 30611U 99025AMS 17324.12492825  .00007949  00000-0  36726-3 0  9992
2 30611  98.6108 271.1511 0184249 348.4239  11.2774 15.06647218582416
Source of the keplerian elements: AFSPC